Location: Biçisarri
(42.4820°N, 1.4605°E)
Time: 01:52:57
(UTC+00:00)

Cosmos 1844 - Pass Details

Date: 08 August 2025
Orbit: 820 x 867 km, 70.9° (Epoch: 10 May)

Event Time Altitude Azimuth Distance (km) Brightness Sun altitude
Rises 21:58:11 0° 331° (NNW) 3,442 8.3 -25.3°
Reaches altitude 10° 22:00:41 10° 328° (NNW) 2,506 7.2 -25.5°
Maximum altitude 22:06:19 57° 251° (WSW) 1,011 4.0 -26.1°
Enters shadow 22:07:11 52° 217° (SW) 1,070 4.0 -26.2°
